Notices

What's New in latest Release from April 7th, 2021:

- Updated Glossary, including Speed of Maximum Gust, and Total Hourly Precipitation

- Updated national and regional climate services offices contacts and prices information

- Addition of station inventory lists for 1981-2010, 1971-2000, and 1961-1990 Normals.

If you haven't already, please take our survey and provide feedback about our website: https://eccc.sondage-survey.ca/f/LanguageSelection.aspx?s=442ca660-fcf1-47c0-95a9-59707d6fd709

Hourly Data Report for April 12, 2020

CLYDE RIVER A
NUNAVUT
Current Station Operator: NAVCAN

70°29'09.000" N
68°31'01.000" W
26.50 m
2400804
71090
YCY

Download Data

Hourly Data (April 2020)
Hourly Data Report for April 12, 2020
TIME
LST
Temp Definition
°C
Dew Point Definition
°C
Rel Hum Definition
%
Precip. Amount Definition
mm

Wind Dir Definition
10's deg

Wind Spd Definition
km/h
Visibility Definition
km
Stn Press Definition
kPa
Hmdx Definition


Wind Chill Definition


Weather Definition


00:00 -17.0 -18.5 89 0.0 29 15 9.7 100.79   -25 Snow
01:00 -16.7 -18.1 89 0.0 30 11 16.1 100.69   -24 LegendNANA
02:00 -16.9 -18.4 88 0.0 LegendMM 4 16.1 100.53   -20 LegendNANA
03:00 -17.3 -18.8 88 0.0 32 26 4.8 100.45   -28 Fog
04:00 -17.0 -18.5 88 0.0 32 35 14.5 100.24   -29 LegendNANA
05:00 -16.5 -18.1 88 0.0 31 32 16.1 100.18   -28 LegendNANA
06:00 -14.1 -16.4 83 0.0 31 32 16.1 100.17   -25 LegendNANA
07:00 -13.4 -15.7 83 0.0 31 37 11.3 100.03   -25 LegendNANA
08:00 -13.9 -15.6 87 0.0 31 46 2.8 99.87   -27 Snow,Blowing Snow
09:00 -12.8 -15.1 83 0.0 32 37 14.5 99.88   -24 LegendNANA
10:00 -13.1 -15.6 82 0.0 31 43 6.4 99.69   -25 Fog
11:00 -12.5 -15.3 80 0.0 31 46 6.4 99.58   -25 Haze
12:00 -12.3 -14.8 82 0.0 31 48 4.8 99.46   -25 Snow
13:00 -12.2 -14.9 80 0.0 31 48 6.4 99.45   -25 Snow
14:00 -12.2 -14.5 83 0.0 32 45 6.4 99.40   -24 Snow
15:00 -12.1 -13.8 87 0.0 31 45 1.6 99.30   -24 Snow,Blowing Snow
16:00 -11.8 -13.8 85 0.0 32 46 12.9 99.21   -24 LegendNANA
17:00 -12.1 -13.7 88 0.0 33 41 8.1 99.16   -24 Fog
18:00 -12.3 -13.6 90 0.0 32 43 3.2 99.13   -24 Snow,Blowing Snow
19:00 -12.2 -13.4 91 0.0 32 39 1.2 99.14   -24 Snow,Blowing Snow
20:00 -12.0 -13.1 92 0.0 31 41 1.0 99.07   -24 Snow,Blowing Snow
21:00 -11.7 -12.8 92 0.0 32 43 1.2 99.02   -23 Snow,Blowing Snow
22:00 -11.4 -12.3 93 0.0 32 41 1.2 98.98   -23 Snow,Blowing Snow
23:00 -11.5 -12.6 92 0.0 32 43 1.2 98.90   -23 Snow,Blowing Snow

Notes on Data Quality.

Legend

  • E = Estimated
  • M = Missing
  • NA = Not Available*
  • [empty] = Indicates an unobserved value
Date modified: